Regional Weather Roundup
Issued by NWS State College, PA

Home | Current Version | Previous Version | Text Only | Print | Product List | Glossary On
Versions: 1 2 3 4 5 6 7 8 9 10 11 12 13 14 15 16 17 18 19 20 21 22 23 24 25 26 27 28 29 30 31 32 33 34 35 36 37 38 39 40 41 42 43 44 45 46 47 48 49 50
000
ASUS41 KCTP 070710
RWRCTP

REGIONAL WEATHER ROUNDUP
NATIONAL WEATHER SERVICE STATE COLLEGE PA
300 AM EDT TUE JUL 07 2015

Note: "fair" indicates few or no clouds below 12,000 feet with no
significant weather and/or obstructions to visibility.

* = STATION THAT DOES NOT REPORT PRECIPITATION /E.G. RAIN...SNOW...ETC/
    THUNDER OR FOG.

PAZ002>004-007>009-013>016-020>023-029>032-070800-
WESTERN PENNSYLVANIA

CITY           SKY/WX    TMP DP  RH WIND       PRES   REMARKS
ERIE           MOCLDY    72  66  81 S8        29.95F
MEADVILLE      LGT RAIN  68  66  93 S5        30.01S FOG
FRANKLIN*      CLOUDY    66  63  88 SW6       30.03S
NEW CASTLE     PTSUNNY   69  69 100 CALM      30.02S
BEAVER COUNTY  NOT AVBL
BUTLER*        PTCLDY    68  66  94 SW3       30.04S
PITTSBURGH INT CLOUDY    70  66  87 SW7       30.02F
PITTSBURGH     MOCLDY    67  63  87 S7        30.03S
INDIANA*       CLOUDY    68  68 100 W7        30.07S
LATROBE        NOT AVBL
WASHINGTON CO* NOT AVBL
$$

PAZ004>006-010>012-017>019-024>028-033>037-041-042-045-046-049>053-070800-
CENTRAL PENNSYLVANIA

CITY           SKY/WX    TMP DP  RH WIND       PRES   REMARKS
BRADFORD       CLOUDY    68  65  90 S7        30.04S
DUBOIS         CLOUDY    69  66  90 SW8       30.03S
CLEARFIELD     FOG       67  66  97 CALM      30.03F VSB 3/4
JOHNSTOWN      CLOUDY    67  65  93 SW6       30.08S FOG
ALTOONA        CLOUDY    68  66  93 SW3       30.06R
STATE COLLEGE  CLOUDY    69  68  95 CALM      30.03S
WILLIAMSPORT   MOCLDY    73  69  87 CALM      29.99S
SELINSGROVE    CLOUDY    72  70  93 CALM      30.01F FOG
FT INDIANTOWN  CLOUDY    72  71  95 S1        30.02S
CAPITAL CITY   MOCLDY    73  69  87 CALM      30.01S
HARRISBURG     CLOUDY    73  70  90 CALM      30.01R
YORK           CLOUDY    71  70  96 CALM      30.02S
$$

PAZ038>040-043-044-047-048-054-055-060>062-067>071-070800-
EASTERN PENNSYLVANIA

CITY           SKY/WX    TMP DP  RH WIND       PRES   REMARKS
SCRANTON       MOCLDY    75  67  76 VRB3      30.04S
MOUNT POCONO   LGT RAIN  68  32  26 SE8       30.09F VSB 1/4
ALLENTOWN      CLOUDY    75  72  88 SE5       30.03F
QUAKERTOWN*    PTSUNNY   73  72  94 SE3       30.05F
READING        MOCLDY    74  71  91 SE5       30.01S
LANCASTER      MOCLDY    71  70  96 CALM      30.02S
COATESVILLE    CLOUDY    73  73 100 CALM      30.05S FOG
POTTSTOWN      CLOUDY    74  73  97 VRB3      30.04F
BLUE BELL      MOCLDY    75  72  88 CALM      30.03S
DOYLESTOWN     MOCLDY    72  71  97 S5        30.04S
WILLOW GROVE   NOT AVBL
NORTH PHILA    CLOUDY    76  70  82 CALM      30.05S
PHILADELPHIA   CLOUDY    77  72  84 S8        30.04R
$$



USA.gov is the U.S. government's official web portal to all federal, state and local government web resources and services.